Weather History for PHNG - March, 2013

Change the Weather History Date:

Wednesday, March 6, 2013

  Actual Average Record
Temperature  
Mean Temperature 74 °F -  
Max Temperature 79 °F 75 °F 82 °F (2014)
Min Temperature 69 °F 67 °F 63 °F (2003)
Cooling Degree Days 9    
Growing Degree Days 24 (Base 50)    
Moisture  
Dew Point 62 °F    
Average Humidity 68    
Maximum Humidity 82    
Minimum Humidity 51    
Precipitation  
Precipitation 0.00 in - - ()
Sea Level Pressure  
Sea Level Pressure 30.11 in    
Wind  
Wind Speed 8 mph (East)    
Max Wind Speed 13 mph    
Max Gust Speed 18 mph    
Visibility 7 miles    
Events      
Averages and records for this station are not official NWS values.
T = Trace of Precipitation, MM = Missing Value Source: NWS Daily Summary

Daily Weather History Graph

Daily Weather History Graph

Search for Another Location

Airport or City:

Trip Planner

Search our weather history database for the weather conditions in past years. The results will help you decide how hot, cold, wet, or windy it might be!

Date:

Astronomy

Mar. 06, 2013 Rise Set
Actual Time 6:47 AM HST 6:37 PM HST
Civil Twilight 6:24 AM HST 6:59 PM HST
Nautical Twilight 5:59 AM HST 7:25 PM HST
Astronomical Twilight 5:33 AM HST 7:51 PM HST
Moon 2:36 AM HST (3/6) 1:59 PM HST (3/6)
Length of Visible Light 12h 34m
Length of Day
11h 50m
Waning Crescent, 28% of the Moon is Illuminated
Mar 6
Waning Crescent
Mar 11
New
Mar 19
First Quarter
Mar 26
Full
Apr 2
Last Quarter

Hourly Weather History & Observations

Time (HST) Temp. Dew Point Humidity Pressure Visibility Wind Dir Wind Speed Gust Speed Precip Events Conditions
12:33 AM 69.8 °F 62.6 °F 78% 30.15 in 6.2 mi East 8.1 mph 16.1 mph 0.00 in   Mostly Cloudy
12:49 AM 69.8 °F 62.6 °F 78% 30.15 in 6.2 mi East 9.2 mph 18.4 mph 0.00 in   Scattered Clouds
12:57 AM 69.8 °F 62.1 °F 76% 30.13 in 7.0 mi ENE 6.9 mph - 0.00 in   Scattered Clouds
1:57 AM 69.8 °F 60.1 °F 71% 30.11 in 7.0 mi East 11.5 mph 18.4 mph N/A   Scattered Clouds
2:57 AM 69.8 °F 63.0 °F 79% 30.09 in 7.0 mi East 10.4 mph 17.3 mph 0.00 in   Scattered Clouds
3:00 AM - - N/A% - - North - - N/A   Unknown
3:57 AM 69.8 °F 63.0 °F 79% 30.08 in 7.0 mi ESE 8.1 mph - N/A   Scattered Clouds
4:57 AM 69.8 °F 63.0 °F 79% 30.07 in 7.0 mi Variable 4.6 mph - N/A   Scattered Clouds
5:00 AM - - N/A% - - North - - N/A   Unknown
5:57 AM 69.8 °F 63.0 °F 79% 30.09 in 7.0 mi East 5.8 mph - N/A   Mostly Cloudy
6:57 AM 69.8 °F 64.0 °F 82% 30.10 in 7.0 mi East 8.1 mph - N/A   Mostly Cloudy
7:57 AM 71.6 °F 62.1 °F 72% 30.12 in 7.0 mi ENE 9.2 mph - N/A   Overcast
8:57 AM 72.0 °F 62.8 °F 73% 30.13 in 7.0 mi East 10.4 mph 18.4 mph N/A   Mostly Cloudy
9:57 AM 75.7 °F 63.0 °F 64% 30.15 in 7.0 mi East 11.5 mph - N/A   Mostly Cloudy
10:57 AM 77.5 °F 62.1 °F 59% 30.15 in 7.0 mi ESE 10.4 mph 17.3 mph N/A   Scattered Clouds
11:57 AM 78.3 °F 61.0 °F 55% 30.13 in 7.0 mi East 12.7 mph - N/A   Scattered Clouds
12:57 PM 79.0 °F 61.0 °F 54% 30.11 in 7.0 mi NE 11.5 mph 18.4 mph N/A   Mostly Cloudy
1:57 PM 79.7 °F 60.1 °F 51% 30.09 in 7.0 mi ENE 8.1 mph 17.3 mph N/A   Overcast
2:57 PM 79.9 °F 60.1 °F 51% 30.08 in 7.0 mi ENE 10.4 mph 17.3 mph N/A   Mostly Cloudy
3:57 PM 77.0 °F 60.1 °F 56% 30.07 in 7.0 mi ENE 10.4 mph 17.3 mph N/A   Mostly Cloudy
4:57 PM 77.0 °F 61.0 °F 58% 30.08 in 7.0 mi ENE 5.8 mph - N/A   Mostly Cloudy
5:07 PM - - N/A% - - North - - N/A   Unknown
5:57 PM 74.1 °F 61.0 °F 63% 30.08 in 7.0 mi East 6.9 mph - N/A   Mostly Cloudy
6:57 PM 71.8 °F 61.0 °F 69% 30.08 in 7.0 mi East 4.6 mph - N/A   Partly Cloudy
7:57 PM 71.8 °F 62.1 °F 71% 30.09 in 7.0 mi East 8.1 mph - N/A   Partly Cloudy
8:57 PM 71.8 °F 62.1 °F 71% 30.11 in 7.0 mi East 6.9 mph - N/A   Overcast
9:57 PM 72.3 °F 61.0 °F 67% 30.12 in 7.0 mi ESE 4.6 mph - N/A   Mostly Cloudy
10:57 PM 71.2 °F 60.1 °F 68% 30.12 in 7.0 mi ESE 3.5 mph - N/A   Clear
11:57 PM 71.8 °F 61.0 °F 69% 30.12 in 7.0 mi Calm Calm - N/A   Partly Cloudy